sat.trackr.live / text

‹ back to catalog

STARLINK-11137 [DTC]

NORAD 60050 · 2024-112N

PAYLOAD ACTIVE UNKNOWN

§ Identity

Operator
Country
US
Launch date
2024-06-08
Launch site
AFWTR
Launch vehicle
Mass (kg)
RCS (m²)

Purposes: comms

External: N2YO · Heavens-Above · Gunter

§ Orbital elements

Epoch: 2026-09-21T14:11:50.811648Z

Period
91.74 min
Inclination
53.1575°
Eccentricity
0.0000775
Mean motion
15.69703809 rev/d
Perigee alt
359.2 km
Apogee alt
360.3 km
Semi-major
6,737.9 km
B*
-1.0445e-6
RAAN
20.2402°
Arg perigee
119.9624°
Mean anomaly
240.1471°
Rev number
13,175

§ Raw data

STARLINK-11137 [DTC]1 60050U 24112N   26264.59156032 -.00000714  00000+0 -10445-5 0  99942 60050  53.1575  20.2402 0000775 119.9624 240.1471 15.69703809131754

JSON: /api/v1/satellites/60050 · /tle

For live sub-satellite position, see the globe view (requires WebGL).

§ Visibility from observer

Set your observer location to see the next 7 days of passes ≥ 10°. The values pass through the URL so the page stays shareable.

No JS? Fill the form by hand. The geolocation button needs JavaScript.